Flag for Germany Weather past 2 weeks in Bottrop, North Rhine-Westphalia, Germany

Now
68 °F

Passing clouds.


Feels Like: 68 °F
Forecast: 61 / 82 °F
Wind: 10 mph from Southwest

Location: Duesseldorf

Current Time: Jul 6, 2015 at 11:45:55 AM

Latest Report: Jul 6, 2015 at 11:20 AM


Visibility: N/A

Pressure: 30.18 "Hg

Humidity: 60%

Dew point: 54 °F

Location of BottropLocation

Historic Weather in Bottrop — Graph

°F

Bottrop temperature yesterday

Maximum temperature yesterday: 88 °F (at 2:50 PM)
Minimum temperature yesterday: 64 °F (at 11:50 PM)
Average temperature yesterday: 74 °F

Past Weeks' High & Low Weather Summary

 TemperatureHumidityPressure
High99 °F (Jul 2, 3:20 PM)100% (Jun 22, 8:50 AM)30.24 "Hg (Jun 22, 8:50 AM)
Low50 °F (Jun 22, 10:20 PM)23% (Jul 1, 5:20 PM)29.71 "Hg (Jun 22, 5:50 PM)
Average70 °F64%30.07 "Hg
* Reported Jun 21 10:20 AM — Jul 6 10:20 AM, Bottrop, Weather by CustomWeather, © 2015

Note: Actual official high and low records may vary slightly from our data, if they occured in-between our weather recording intervals... More about our weather records

Advertising

Bottrop weather history for previous 24 hours

 ConditionsComfort  
Time TempWeatherWind HumidityBarometerVisibility
10:20 AM
Mon, Jul 6
66 °FPassing clouds.7 mph73%30.18 "HgN/A
9:50 AM64 °FPassing clouds.6 mph73%30.18 "HgN/A
9:20 AM63 °FScattered clouds.6 mph77%30.18 "HgN/A
8:50 AM63 °FPartly sunny.6 mph77%30.18 "HgN/A
8:20 AM61 °FScattered clouds.8 mph77%30.18 "HgN/A
7:50 AM61 °FPassing clouds.8 mph77%30.15 "HgN/A
7:20 AM61 °FPassing clouds.9 mph77%30.15 "HgN/A
6:50 AM61 °FPassing clouds.8 mph83%30.15 "HgN/A
6:20 AM59 °FPassing clouds.6 mph82%30.15 "HgN/A
5:20 AM61 °FPassing clouds.7 mph77%30.15 "HgN/A
4:50 AM61 °FPassing clouds.7 mph83%30.15 "HgN/A
4:20 AM63 °FPassing clouds.7 mph77%30.12 "HgN/A
3:50 AM63 °FPassing clouds.7 mph83%30.12 "HgN/A
3:20 AM64 °FPassing clouds.8 mph78%30.12 "HgN/A
2:50 AM64 °FPassing clouds.5 mph83%30.12 "HgN/A
2:20 AM64 °FPassing clouds.5 mph83%30.09 "HgN/A
1:50 AM64 °FPassing clouds.6 mph78%30.09 "HgN/A
1:20 AM64 °FPassing clouds.5 mph83%30.09 "HgN/A
12:50 AM66 °FPassing clouds.6 mph78%30.07 "HgN/A
12:20 AM66 °FPassing clouds.7 mph78%30.07 "HgN/A
11:50 PM
Sun, Jul 5
64 °FClear.5 mph83%30.07 "Hg10 mi
11:20 PM66 °FClear.5 mph78%30.07 "Hg10 mi
10:50 PM66 °FPassing clouds.6 mph83%30.04 "HgN/A
10:20 PM66 °FBroken clouds.5 mph83%30.04 "HgN/A
9:50 PM68 °FPartly sunny.6 mph78%30.01 "HgN/A
9:20 PM68 °FBroken clouds.5 mph78%29.98 "HgN/A
8:50 PM68 °FSprinkles. Partly sunny.1 mph78%30.01 "HgN/A
8:20 PM68 °FSprinkles. Broken clouds.6 mph78%29.98 "HgN/A
7:50 PM70 °FSprinkles. Partly sunny.9 mph69%30.01 "HgN/A
7:20 PM72 °FSunny.9 mph65%29.98 "Hg10 mi
6:50 PM72 °FPartly sunny.20 mph61%29.98 "HgN/A
6:20 PM73 °FThundershowers. Scattered clouds.20 mph61%29.98 "HgN/A
5:50 PM73 °FScattered clouds.23 mph61%29.95 "HgN/A
5:20 PM84 °FScattered clouds.22 mph51%29.89 "HgN/A
4:50 PM88 °FSunny.14 mph52%29.86 "Hg10 mi
4:20 PM88 °FSunny.8 mph55%29.86 "Hg10 mi
3:50 PM86 °FThundershowers. Partly sunny.6 mph55%29.89 "HgN/A
3:20 PM86 °FThundershowers. Scattered clouds.9 mph55%29.92 "HgN/A
2:50 PM88 °FPassing clouds.7 mph52%29.89 "HgN/A
2:20 PM86 °FScattered clouds.7 mph55%29.92 "HgN/A
1:50 PM84 °FScattered clouds.9 mph62%29.95 "HgN/A
1:20 PM82 °FBroken clouds.9 mph62%29.95 "HgN/A
12:50 PM81 °FBroken clouds.7 mph70%29.98 "HgN/A
12:20 PM79 °FPartly sunny.13 mph70%29.98 "HgN/A
11:50 AM77 °FPartly sunny.5 mph79%29.98 "HgN/A
11:20 AM75 °FPartly sunny.8 mph83%29.98 "HgN/A
Weather by CustomWeather, © 2015

See weather overviewHow to use our weather pages